一网星座-0304星 (ONEWEB-0304 )

导读 | 豆包AI

ONEWEB-0304是一颗由英国发射的卫星,发射于2021年8月21日,它属于OneWeb低轨卫星互联网项目,该项目旨在构建全球卫星通信网络,为全球偏远地区等提供宽带互联网接入服务,这颗卫星的成功发射推进了OneWeb星座组网进程,助力项目早日实现全球覆盖的目标。

基本信息
目录编号:
49092
目录名称:
ONEWEB-0304
国际标识:
2021-075T
轨道中心:
EARTH
卫星名称:
一网星座-0304星
卫星全名:
一网星座-0304星 (ONEWEB-0304 )
卫星状态:
在轨 (已飞行1666 天)
发射日期:
2021-08-21 UTC
国别 :
英国 (GB)
星等 :
--
轨道信息
数据来源 国际轨道数据 AOE轨道数据
星历时间 2026-03-13T14:15:48+0800
1天前
查看轨道信息
2026-03-08T10:00:00+0800
6天前
查看轨道信息
半长轴 7571.845km 7571.873km
偏心率 0.0001871 0.0000896
轨道倾角 87.916° 87.915°
近地点辐角 76.129° 60.655°
升交点赤经 24.917° 25.946°
平近点角 284.006° 233.156°
近地点 1192.291km 1193.057km
远地点 1195.125km 1194.415km
周期 109.285分钟 109.286分钟
每日圈数 13.176505 13.176433
详细信息
平衡模式:
三轴稳定
覆盖范围:
全球
运营商:
一网卫星公司
运营商所在国:
英国
制造商(研发单位):
一网卫星公司
制造商所在国:
英国
使用方式:
暂无
卫星简介
OneWeb卫星网络由648颗重约125公斤的微型卫星组成,运行在1200公里的轨道上。 每颗卫星都能够提供至少每秒8千兆位的吞吐量,以使用其高吞吐量的Ku频段有效载荷为家庭和移动平台提供互联网接入。该卫星仍在工作。
2D轨道图
3D轨道图
轨道高度分析图
轨道倾角分析图
轨道综合分析图
查看轨道综合分析图